Location: L�Ave Maria
(50.7161°N, 1.5911°E)
Time: 13:18:38
(UTC+00:00)

Cosmos 1892 - Pass Details

Date: 10 July 2020
Orbit: 505 x 523 km, 82.5° (Epoch: 07 August)

Event Time Altitude Azimuth Distance (km) Brightness Sun altitude
Exits shadow 21:24:04 12° 165° (SSE) 1,623 4.6 -9.6°
Maximum altitude 21:27:24 44° 94° (E) 719 3.1 -9.9°
Drops below altitude 10° 21:31:04 10° 22° (NNE) 1,751 5.9 -10.2°
Sets 21:33:16 0° 16° (NNE) 2,646 6.9 -10.4°
